[[{"header":{"parameterUnit":"m.s-1","parameterCategory":1,"la1":30.2991,"la2":30.254,"lo1":-89.0895,"lo2":-89.0444,"dy":0.0017,"dx":0.0017,"nx":28,"ny":28,"refTime":"2024-03-21T09:00:00:Z","depth":0,"parameterNumber":2,"parameterNumberName":"U-component_of_WINDS"},"data":[0,0,0,0,0,0,0,0,0,0,0,0,0,0,0,0,0,0,0,0,0,0,0,0,0,0,0,0,0,0,0,0,0,0,0,0,0,0,0,0,0,0,0,0,0,0,0,0,0,0,0,0,0,0,0,0,0,0,5.5891,5.5893,0,5.6021,5.6022,5.6024,5.5969,5.5966,5.5963,5.596,5.6093,5.6099,5.6106,0,0,0,0,0,0,0,0,0,0,0,0,0,5.5599,5.5605,5.5891,5.5893,5.5895,5.602,5.6022,5.6024,5.597,5.5966,5.5962,5.5959,5.6091,5.6099,5.6106,0,0,0,0,0,0,0,0,0,0,0,0,0,5.5727,5.5607,5.5891,5.5883,5.5883,5.602,5.6022,5.6025,5.5971,5.5966,5.5961,5.5957,5.6089,5.6098,5.6107,5.626,0,0,5.6137,5.6141,0,0,0,0,0,0,0,0,5.572,5.5738,5.5882,5.5884,5.5884,5.5974,5.5968,5.6104,5.5972,5.5938,5.596,5.5955,5.6057,5.6069,5.6104,5.6266,5.6272,5.6138,5.6144,5.6148,5.6151,0,0,0,0,0,0,0,5.5711,5.5732,5.5942,5.5884,5.5886,5.5873,5.5886,5.5993,5.6022,5.594,5.5937,5.5953,5.6057,5.6095,5.6107,5.6274,5.6138,5.6146,5.6152,5.6156,5.6571,5.6576,0,0,0,0,0,0,5.5702,5.5725,5.5938,5.5946,5.5789,5.5882,5.5897,5.595,5.6021,5.6027,5.5956,5.595,5.608,5.6095,5.6111,5.6296,5.6148,5.6157,5.6162,5.6566,5.6572,5.6578,0,0,0,0,0,0,5.5696,5.5722,5.5933,5.5835,5.5861,5.5892,5.5953,5.5955,5.5993,5.6033,5.6038,5.599,5.6077,5.6097,5.6224,5.63,5.6161,5.617,5.656,5.6568,5.6575,5.6667,0,0,0,0,0,0,5.5688,5.572,5.5777,5.5837,5.5866,5.6044,5.5957,5.5961,5.6009,5.6002,5.6065,5.6071,5.6075,5.621,5.6234,5.6311,5.6177,5.6553,5.6563,5.6573,5.6657,5.6677,5.6693,0,0,0,0,0,5.5678,5.5798,5.5781,5.5807,5.5939,5.6048,5.6065,5.6067,5.6016,5.6074,5.6101,5.6069,5.6288,5.6223,5.625,5.6331,5.6548,5.656,5.6572,5.6649,5.6673,5.6693,0,0,0,0,0,0,5.5746,5.5805,5.5787,5.5929,5.5984,5.6039,5.6113,5.6092,5.6162,5.6152,5.6152,5.6167,5.6298,5.6327,5.6254,5.6483,5.641,5.6428,5.646,5.6483,5.6501,5.6491,5.6185,0,0,0,0,0,5.5778,5.5861,5.5908,5.603,5.6058,5.6081,5.6129,5.6126,5.6182,5.6205,5.624,5.6297,5.6379,5.6432,5.6509,5.6661,5.6675,5.673,5.6748,5.6763,5.6778,5.6863,5.6888,5.6617,5.6617,5.6616,0,0,5.5844,5.5887,5.5939,5.6045,5.6087,5.6174,5.6101,5.6195,5.626,5.6219,5.6342,5.637,5.6433,5.6574,5.6637,5.6602,5.6856,5.6778,5.6789,5.6797,5.6877,5.6903,5.6926,5.6625,5.6623,5.6622,0,0,5.601,5.605,5.6156,5.6201,5.6265,5.628,5.6306,5.6364,5.6382,5.6504,5.6476,5.6554,5.6693,5.674,5.6783,5.6969,5.6943,5.6994,5.7089,5.7172,5.7193,5.7212,5.728,5.7304,5.7009,5.7009,5.7009,0,5.6084,5.6214,5.6214,5.6312,5.636,5.6327,5.6436,5.6478,5.6565,5.66,5.6559,5.6735,5.6775,5.6927,5.6973,5.7008,5.7038,5.6987,5.719,5.7209,5.7227,5.7292,5.7317,5.7015,5.7014,5.7014,5.7013,0,5.6303,5.6394,5.6472,5.6558,5.6614,5.6717,5.6733,5.6791,5.6784,5.6803,5.693,5.6977,5.7064,5.71,5.7093,5.7252,5.7228,5.7189,5.7115,5.7258,5.7319,5.7344,5.7024,5.7021,5.702,5.7018,0,0,5.6514,5.66,5.6629,5.6668,5.6738,5.6809,5.6911,5.6996,5.7047,5.7108,5.7195,5.7315,5.728,5.7328,5.7326,5.7399,5.7546,5.7351,5.7352,5.7386,5.7725,5.7755,5.7784,5.7529,5.7534,5.7537,5.7721,0,5.6686,5.6865,5.6869,5.7033,5.7118,5.709,5.7179,5.7232,5.7254,5.733,5.7353,5.7439,5.7385,5.7415,5.7485,5.7513,5.7614,5.7499,5.7611,5.7614,5.7596,5.7815,5.7847,5.8017,5.7744,5.7748,5.7751,0,5.6911,5.698,5.7153,5.7214,5.7249,5.7329,5.7409,5.7481,5.7542,5.7553,5.7608,5.7596,5.7702,5.7625,5.7771,5.7694,5.774,5.7761,5.7767,5.7778,5.7692,5.7833,5.8071,5.8097,5.7788,5.7785,5.7783,0,5.705,5.7186,5.7308,5.7343,5.7415,5.7473,5.7506,5.7562,5.7614,5.7684,5.7718,5.7799,5.7844,5.7908,5.7919,5.7862,5.8067,5.799,5.8079,5.8079,5.8124,5.8121,5.8374,5.8152,5.8152,5.8151,5.8151,0,5.7242,5.7349,5.7372,5.7447,5.7567,5.7571,5.769,5.7718,5.7769,5.785,5.783,5.7906,5.7916,5.7996,5.8005,5.8126,5.8146,5.8159,5.816,5.8161,5.816,5.8191,5.818,5.8158,5.8157,5.8155,5.8154,0,5.7417,5.7436,5.7567,5.7626,5.7643,5.773,5.778,5.7853,5.7872,5.7975,5.8,5.8031,5.8124,5.8142,5.8251,5.8257,5.8402,5.8391,5.8382,5.8381,5.847,5.8461,5.8752,5.8791,5.8543,5.8546,5.8547,0,5.7539,5.7621,5.7689,5.7742,5.7778,5.7863,5.7916,5.7924,5.798,5.8057,5.8121,5.8211,5.8284,5.8434,5.8467,5.8551,5.8543,5.8639,5.8555,5.8554,5.8546,5.8541,5.855,5.8655,5.8658,5.866,5.8662,0,5.7753,5.7759,5.7836,5.7919,5.7983,5.8047,5.8109,5.8153,5.8169,5.8234,5.8329,5.8386,5.8498,5.8589,5.8673,5.8708,5.8689,5.8688,5.8713,5.8715,5.8707,5.8714,5.8427,5.8681,5.8679,5.8678,5.8677,5.8676,5.7906,5.7979,5.8038,5.8126,5.8173,5.8232,5.8303,5.8333,5.8412,5.8504,5.8504,5.8608,5.8669,5.878,5.882,5.8903,5.8872,5.8909,5.8918,5.8927,5.8936,5.8694,5.8918,5.8917,5.8917,5.8917,5.8916,0,5.8121,5.8158,5.8239,5.8326,5.8395,5.8371,5.8438,5.8498,5.859,5.8648,5.8721,5.8831,5.892,5.8961,5.9048,5.9107,5.91,5.9129,5.9126,5.9134,5.8958,5.8928,5.9133,5.9133,5.9133,5.9133,5.9133,5.9133,5.8241,5.8363,5.8376,5.8522,5.8559,5.8661,5.8702,5.8756,5.8803,5.8926,5.9,5.9026,5.9078,5.917,5.9251,5.926,5.9294,5.9328,5.9334,5.9169,5.9147,5.9126,5.9097,5.9335,5.9336,5.9504,5.9506,5.9507]},{"header":{"parameterUnit":"m.s-1","parameterCategory":1,"la1":30.2991,"la2":30.254,"lo1":-89.0895,"lo2":-89.0444,"dy":0.0017,"dx":0.0017,"nx":28,"ny":28,"refTime":"2024-03-21T09:00:00:Z","depth":0,"parameterNumber":3,"parameterNumberName":"V-component_of_WINDS"},"data":[0,0,0,0,0,0,0,0,0,0,0,0,0,0,0,0,0,0,0,0,0,0,0,0,0,0,0,0,0,0,0,0,0,0,0,0,0,0,0,0,0,0,0,0,0,0,0,0,0,0,0,0,0,0,0,0,0,0,-4.3464,-4.3465,0,-4.3563,-4.3564,-4.3565,-4.3564,-4.3562,-4.3561,-4.356,-4.3659,-4.3663,-4.3667,0,0,0,0,0,0,0,0,0,0,0,0,0,-4.3271,-4.3275,-4.3463,-4.3465,-4.3466,-4.3563,-4.3564,-4.3565,-4.3564,-4.3562,-4.3561,-4.3559,-4.3658,-4.3663,-4.3667,0,0,0,0,0,0,0,0,0,0,0,0,0,-4.3361,-4.3276,-4.3463,-4.3477,-4.3479,-4.3562,-4.3564,-4.3566,-4.3564,-4.3562,-4.356,-4.3559,-4.3657,-4.3662,-4.3668,-4.3743,0,0,-4.3686,-4.3688,0,0,0,0,0,0,0,0,-4.3356,-4.3368,-4.3474,-4.3476,-4.3479,-4.3549,-4.3533,-4.3625,-4.3565,-4.3532,-4.356,-4.3558,-4.3624,-4.3632,-4.3655,-4.3748,-4.3752,-4.3686,-4.369,-4.3692,-4.3694,0,0,0,0,0,0,0,-4.335,-4.3364,-4.3503,-4.3475,-4.3478,-4.3478,-4.3488,-4.355,-4.3588,-4.3535,-4.3535,-4.3547,-4.3625,-4.365,-4.3658,-4.3754,-4.3686,-4.3691,-4.3695,-4.3697,-4.3913,-4.3915,0,0,0,0,0,0,-4.3341,-4.3359,-4.35,-4.3506,-4.3411,-4.3483,-4.3495,-4.3528,-4.3587,-4.3594,-4.3548,-4.3546,-4.3641,-4.3651,-4.3661,-4.3753,-4.3692,-4.3698,-4.3701,-4.3911,-4.3914,-4.3916,0,0,0,0,0,0,-4.3337,-4.3353,-4.3496,-4.3432,-4.345,-4.3488,-4.3526,-4.3531,-4.3556,-4.3597,-4.3604,-4.3567,-4.364,-4.3653,-4.3723,-4.3757,-4.37,-4.3706,-4.3908,-4.3912,-4.3915,-4.3938,0,0,0,0,0,0,-4.3331,-4.3352,-4.3381,-4.3433,-4.3454,-4.3556,-4.3528,-4.3535,-4.3566,-4.3565,-4.3616,-4.3623,-4.3639,-4.3714,-4.3729,-4.3764,-4.371,-4.3905,-4.391,-4.3914,-4.3934,-4.3942,-4.3948,0,0,0,0,0,-4.3324,-4.3384,-4.3383,-4.34,-4.3491,-4.3558,-4.357,-4.3588,-4.3569,-4.3599,-4.3625,-4.3621,-4.3751,-4.3722,-4.3738,-4.3775,-4.3903,-4.3908,-4.3913,-4.3931,-4.394,-4.3948,0,0,0,0,0,0,-4.3334,-4.339,-4.339,-4.3468,-4.3509,-4.3558,-4.3596,-4.3597,-4.3643,-4.3639,-4.3659,-4.3671,-4.3741,-4.3765,-4.3731,-4.3851,-4.3825,-4.3833,-4.3832,-4.3841,-4.3848,-4.3841,-4.3715,0,0,0,0,0,-4.3346,-4.3396,-4.3442,-4.3506,-4.3526,-4.3558,-4.3588,-4.3598,-4.364,-4.3657,-4.3689,-4.373,-4.3779,-4.3812,-4.386,-4.3938,-4.3949,-4.3971,-4.3978,-4.3983,-4.399,-4.4033,-4.4044,-4.3933,-4.3933,-4.3932,0,0,-4.3369,-4.3406,-4.3437,-4.3509,-4.3542,-4.3593,-4.3572,-4.3627,-4.3665,-4.3665,-4.3734,-4.3758,-4.3805,-4.3879,-4.3914,-4.3902,-4.4024,-4.399,-4.3994,-4.3998,-4.404,-4.405,-4.4059,-4.3936,-4.3935,-4.3935,0,0,-4.3439,-4.3472,-4.3529,-4.3562,-4.3612,-4.3632,-4.3646,-4.3695,-4.3712,-4.3781,-4.3782,-4.3827,-4.3913,-4.3946,-4.3974,-4.4056,-4.4055,-4.4072,-4.4107,-4.4149,-4.4157,-4.4165,-4.4194,-4.4205,-4.4078,-4.4079,-4.4079,0,-4.3462,-4.3539,-4.3558,-4.3613,-4.3645,-4.3648,-4.3706,-4.3737,-4.38,-4.3821,-4.3807,-4.3914,-4.3946,-4.4028,-4.4048,-4.4071,-4.4087,-4.4066,-4.4155,-4.4163,-4.417,-4.4198,-4.4209,-4.408,-4.408,-4.408,-4.408,0,-4.3565,-4.3619,-4.3659,-4.372,-4.3756,-4.3812,-4.3839,-4.3873,-4.388,-4.3902,-4.3972,-4.401,-4.4066,-4.4087,-4.4094,-4.417,-4.4161,-4.4151,-4.4124,-4.4182,-4.4209,-4.422,-4.4083,-4.4082,-4.4082,-4.4081,0,0,-4.3643,-4.3714,-4.3728,-4.3756,-4.3811,-4.3853,-4.3909,-4.3965,-4.3994,-4.4037,-4.4084,-4.4156,-4.4147,-4.4179,-4.419,-4.4227,-4.4289,-4.4212,-4.4213,-4.4225,-4.4375,-4.4383,-4.4395,-4.4288,-4.4291,-4.4292,-4.4371,0,-4.3718,-4.3819,-4.3837,-4.3925,-4.3974,-4.3978,-4.4027,-4.4066,-4.4088,-4.4133,-4.4157,-4.4208,-4.4192,-4.4211,-4.4247,-4.4274,-4.432,-4.4268,-4.4332,-4.4334,-4.432,-4.4409,-4.4417,-4.4489,-4.4382,-4.4383,-4.4385,0,-4.3819,-4.3866,-4.3958,-4.4007,-4.4028,-4.4072,-4.4124,-4.4167,-4.4211,-4.4225,-4.426,-4.4267,-4.4325,-4.4297,-4.4377,-4.4342,-4.4369,-4.4386,-4.4389,-4.4395,-4.4363,-4.4417,-4.4513,-4.4524,-4.4401,-4.44,-4.4399,0,-4.3867,-4.3952,-4.4019,-4.4042,-4.4101,-4.4131,-4.4157,-4.4199,-4.4231,-4.4277,-4.4298,-4.4349,-4.4377,-4.4416,-4.4437,-4.4414,-4.4515,-4.4488,-4.4527,-4.4527,-4.4548,-4.4547,-4.465,-4.4566,-4.4566,-4.4566,-4.4566,0,-4.3949,-4.4005,-4.4041,-4.4082,-4.4145,-4.4165,-4.4227,-4.4252,-4.429,-4.4335,-4.4341,-4.4384,-4.4408,-4.4454,-4.447,-4.4534,-4.4546,-4.4558,-4.4562,-4.4558,-4.4556,-4.4576,-4.4571,-4.4569,-4.4568,-4.4567,-4.4567,0,-4.4013,-4.4039,-4.4112,-4.4161,-4.4175,-4.4219,-4.4261,-4.4301,-4.4322,-4.438,-4.4394,-4.4429,-4.4483,-4.4507,-4.4574,-4.4585,-4.4657,-4.4657,-4.4643,-4.4644,-4.4682,-4.4678,-4.48,-4.4817,-4.4723,-4.4724,-4.4724,0,-4.4063,-4.4107,-4.4161,-4.4192,-4.4219,-4.4269,-4.4302,-4.4323,-4.4357,-4.4411,-4.4444,-4.4498,-4.4543,-4.4629,-4.466,-4.4711,-4.4712,-4.4752,-4.472,-4.4714,-4.4713,-4.471,-4.4714,-4.4757,-4.4758,-4.4759,-4.476,0,-4.415,-4.4161,-4.4209,-4.4261,-4.43,-4.4342,-4.4383,-4.4408,-4.4436,-4.4474,-4.453,-4.4565,-4.4633,-4.4687,-4.474,-4.4766,-4.4767,-4.4769,-4.4781,-4.4777,-4.4767,-4.4773,-4.4658,-4.4766,-4.4766,-4.4765,-4.4765,-4.4765,-4.4209,-4.4248,-4.4292,-4.4345,-4.4378,-4.4416,-4.4456,-4.4483,-4.453,-4.4588,-4.4598,-4.4657,-4.47,-4.4771,-4.4799,-4.4845,-4.4836,-4.4853,-4.4857,-4.4861,-4.4863,-4.476,-4.4855,-4.4855,-4.4855,-4.4855,-4.4855,0,-4.4296,-4.4325,-4.4373,-4.4431,-4.4472,-4.4471,-4.4516,-4.4551,-4.4603,-4.4643,-4.4687,-4.4751,-4.4804,-4.4838,-4.4891,-4.4922,-4.4924,-4.4935,-4.4933,-4.4938,-4.4869,-4.4853,-4.4932,-4.4932,-4.4932,-4.4932,-4.4932,-4.4932,-4.4347,-4.4412,-4.4428,-4.451,-4.4539,-4.4597,-4.4623,-4.4659,-4.4691,-4.4762,-4.4806,-4.4828,-4.4866,-4.4922,-4.497,-4.4978,-4.4997,-4.5009,-4.5017,-4.4951,-4.4943,-4.4936,-4.4921,-4.5013,-4.5013,-4.5083,-4.5084,-4.5084]}]]